Location: Newark
(49.2191°N, 12.6671°E)
Time: 18:41:27
(UTC+00:00)

Transit 4A - Pass Details

Date: 25 January 2020
Orbit: 872 x 973 km, 66.8° (Epoch: 26 February)

Event Time Altitude Azimuth Distance (km) Brightness Sun altitude
Rises 11:29:53 0° 319° (NW) 3,486 10.5 21.7°
Reaches altitude 10° 11:33:15 10° 338° (NNW) 2,537 9.7 21.7°
Maximum altitude 11:37:11 18° 21° (NNE) 2,016 9.3 21.7°
Drops below altitude 10° 11:41:05 10° 63° (ENE) 2,528 10.0 21.6°
Sets 11:44:26 0° 82° (E) 3,470 10.8 21.6°
